Alexandria, LA

9:49 AM CST on February 20, 2017 (GMT -0600)
Alexandria International

Weather History for KAEX - June, 2013

Change the Weather History Date:

Wednesday, June 26, 2013

  Actual Average Record
Temperature  
Mean Temperature 83 °F 82 °F  
Max Temperature 93 °F 91 °F 104 °F (1930)
Min Temperature 73 °F 72 °F 59 °F (1974)
Cooling Degree Days 18 16  
Month to date cooling degree days 410 385  
Year to date cooling degree days 803 839  
Since 1 June cooling degree days 410 385  
Growing Degree Days 32 (Base 50)    
Moisture  
Dew Point 75 °F    
Average Humidity 78    
Maximum Humidity 100    
Minimum Humidity 56    
Precipitation  
Precipitation 0.00 in 0.19 in 2.65 in (1906)
Month to date precipitation 4.19 4.39  
Year to date precipitation 29.45 28.39  
Sea Level Pressure  
Sea Level Pressure 29.98 in    
Wind  
Wind Speed 5 mph (South)    
Max Wind Speed 10 mph    
Max Gust Speed 16 mph    
Visibility 9 miles    
Events      
T = Trace of Precipitation, MM = Missing Value Source: NWS Daily Summary

Daily Weather History Graph

Daily Weather History Graph

Search for Another Location

Airport or City:

Trip Planner

Search our weather history database for the weather conditions in past years. The results will help you decide how hot, cold, wet, or windy it might be!

Date:

Astronomy

Jun. 26, 2013 Rise Set
Actual Time 6:07 AM CDT 8:18 PM CDT
Civil Twilight 5:39 AM CDT 8:46 PM CDT
Nautical Twilight 5:05 AM CDT 9:20 PM CDT
Astronomical Twilight 4:28 AM CDT 9:57 PM CDT
Moon 10:59 PM CDT (6/26) 9:45 AM CDT (6/26)
Length of Visible Light 15h 06m
Length of Day
14h 10m
Waning Gibbous, 85% of the Moon is Illuminated
Jun 26
Waning Gibbous
Jun 29
Last Quarter
Jul 8
New
Jul 15
First Quarter
Jul 22
Full

Hourly Weather History & Observations

Time (CDT) Temp. Heat Index Dew Point Humidity Pressure Visibility Wind Dir Wind Speed Gust Speed Precip Events Conditions
12:53 AM 75.0 °F - 73.0 °F 94% 29.98 in 10.0 mi SSE 3.5 mph - N/A   Clear
1:53 AM 75.9 °F - 75.0 °F 97% 29.97 in 9.0 mi SSE 5.8 mph - N/A   Clear
2:53 AM 75.0 °F - 73.9 °F 96% 29.96 in 8.0 mi SE 4.6 mph - N/A   Clear
3:53 AM 75.0 °F - 73.9 °F 96% 29.97 in 8.0 mi Calm Calm - N/A   Clear
4:53 AM 73.9 °F - 73.9 °F 100% 29.97 in 6.0 mi SE 3.5 mph - N/A   Clear
5:53 AM 73.0 °F - 73.0 °F 100% 29.98 in 6.0 mi Calm Calm - N/A   Clear
6:53 AM 75.0 °F - 73.9 °F 96% 30.00 in 6.0 mi Calm Calm - N/A   Clear
7:53 AM 78.1 °F - 75.9 °F 93% 30.02 in 9.0 mi South 3.5 mph - N/A   Clear
8:53 AM 82.0 °F 90.2 °F 77.0 °F 85% 30.04 in 10.0 mi SW 3.5 mph - N/A   Partly Cloudy
9:49 AM 84.2 °F 92.3 °F 75.2 °F 74% 30.03 in 10.0 mi WSW 6.9 mph - N/A   Mostly Cloudy
9:53 AM 84.9 °F 94.1 °F 75.9 °F 74% 30.04 in 10.0 mi WSW 10.4 mph - N/A   Mostly Cloudy
10:12 AM 87.8 °F 99.7 °F 77.0 °F 70% 30.03 in 10.0 mi WSW 9.2 mph - N/A   Mostly Cloudy
10:53 AM 86.0 °F 96.0 °F 75.9 °F 72% 30.04 in 10.0 mi SW 4.6 mph - N/A   Partly Cloudy
11:53 AM 88.0 °F 97.5 °F 75.0 °F 65% 30.03 in 10.0 mi South 8.1 mph - N/A   Partly Cloudy
12:53 PM 90.0 °F 100.2 °F 75.0 °F 61% 30.02 in 10.0 mi SW 4.6 mph - N/A   Scattered Clouds
1:53 PM 91.0 °F 101.6 °F 75.0 °F 59% 30.00 in 10.0 mi Variable 4.6 mph - N/A   Clear
2:53 PM 91.9 °F 101.3 °F 73.9 °F 55% 29.97 in 10.0 mi SSE 6.9 mph - N/A   Clear
3:53 PM 91.9 °F 101.3 °F 73.9 °F 55% 29.96 in 10.0 mi South 4.6 mph - N/A   Clear
4:53 PM 91.9 °F 101.3 °F 73.9 °F 55% 29.94 in 10.0 mi South 6.9 mph - N/A   Clear
5:53 PM 91.0 °F 101.6 °F 75.0 °F 59% 29.94 in 10.0 mi South 3.5 mph - N/A   Clear
6:53 PM 89.1 °F 100.2 °F 75.9 °F 65% 29.93 in 10.0 mi South 5.8 mph - N/A   Clear
7:53 PM 86.0 °F 96.0 °F 75.9 °F 72% 29.93 in 10.0 mi South 5.8 mph - N/A   Clear
8:53 PM 82.9 °F 90.2 °F 75.0 °F 77% 29.93 in 10.0 mi South 4.6 mph - N/A   Clear
9:53 PM 81.0 °F 86.7 °F 75.0 °F 82% 29.94 in 10.0 mi South 4.6 mph - N/A   Clear
10:53 PM 80.1 °F 85.1 °F 75.0 °F 85% 29.96 in 10.0 mi SSW 4.6 mph - N/A   Clear
11:53 PM 79.0 °F - 73.9 °F 84% 29.97 in 10.0 mi SSW 4.6 mph - N/A   Clear